Regional Weather Roundup
Issued by NWS

Current Version | Previous Version | Text Only | Print | Product List | Glossary Off
Versions: 1 2 3 4 5 6 7 8 9 10 11 12 13 14 15 16 17 18 19 20 21 22 23 24 25 26 27 28 29 30 31 32 33 34 35 36 37 38 39 40 41 42 43 44 45 46 47 48 49 50

000
ASUS44 KJAN 260910
RWRMS

MISSISSIPPI HOURLY WEATHER ROUNDUP
NATIONAL WEATHER SERVICE JACKSON MS
400 AM CDT SUN JUN 26 2016

NOTE: "FAIR: INDICATES FEW OR NO CLOUDS BELOW 12,000 FEET WITH NO
SIGNIFICANT WEATHER AND/OR OBSTRUCTIONS TO VISIBILITY.

MSZ001>002-007>008-010>013-018>021-025>028-034>036-261000-
NORTHWEST MISSISSIPPI

CITY           SKY/WX    TMP DP  RH WIND       PRES   REMARKS
CLEVELAND      FAIR      75  75 100 CALM      30.07S
GREENWOOD      CLEAR     75  73  93 CALM      30.07R
GREENVILLE     PTCLDY    74  71  91 CALM      30.07R
OXFORD         FAIR      72  70  94 CALM      30.10S
WINONA         FAIR      73  73 100 CALM      30.08R
$$

MSZ003>006-009-014>017-022>024-029>033-037>039-261000-
NORTHEAST MISSISSIPPI

CITY           SKY/WX    TMP DP  RH WIND       PRES   REMARKS
ABERDEEN       FAIR      73  57  56 CALM      30.08R HAZE
COLUMBUS AFB   CLEAR     75  73  93 CALM      30.06R
GOLDN TRIANGLE CLEAR    N/A N/A N/A CALM      30.06R
STARKVILLE     FAIR      73  72  94 CALM      30.06S
TUPELO         CLEAR     78  72  81 CALM      30.07R
$$

MSZ040-058-261000-
CENTRAL MISSISSIPPI

CITY           SKY/WX    TMP DP  RH WIND       PRES   REMARKS
JACKSON INTL   CLEAR     75  72  90 CALM      30.08R
JACKSON HAWKNS CLEAR     77  73  87 CALM      30.08R
MADISON        FAIR      72  72 100 CALM      30.08R
MERIDIAN KEY   PTCLDY    78  74  87 CALM      30.07R
MERIDIAN NAS   CLEAR     77  71  82 CALM      30.07R
VICKSBURG VKS  SUNNY     75  73  94 CALM      30.08R
$$

MSZ059>079-261000-
SOUTH MISSISSIPPI

CITY           SKY/WX    TMP DP  RH WIND       PRES   REMARKS
BROOKHAVEN     FAIR     N/A N/A N/A CALM      30.10R HAZE
HATTIESBURG    CLEAR     76  73  91 CALM      30.07S
MCCOMB         CLEAR     73  70  90 CALM      30.08R
NATCHEZ        NOT AVBL
PINE BELT      CLEAR     73  68  83 CALM      30.08S
$$

MSZ080>082-261000-
COASTAL MISSISSIPPI

CITY           SKY/WX    TMP DP  RH WIND       PRES   REMARKS
BILOXI         CLEAR     81  77  87 VRB2      30.06R
PASCAGOULA     PTCLDY    74  73  97 CALM      30.06R FOG
GULFPORT       CLEAR     78  74  87 CALM      30.06R
$$

LAZ007>009-015>016-023>026-261000-
NORTHEAST LOUISIANA

CITY           SKY/WX    TMP DP  RH WIND       PRES   REMARKS
BASTROP        FAIR      74  73  98 CALM      30.09R
TALLULAH/VBURG CLEAR     75  72  90 CALM      30.07S FOG
VIDALIA        FAIR      76  75  97 CALM      30.11R
$$




USA.gov is the U.S. government's official web portal to all federal, state and local government web resources and services.